Tracking 19283 objects as of 17-Nov-2018
HD Live streaming from Space Station
objects crossing your sky now

COSMOS 739

Track COSMOS 739 now!
10-day predictions
COSMOS 739 is classified as:


NORAD ID: 7828
Int'l Code: 1975-045H
Perigee: 1,429.6 km
Apogee: 1,479.0 km
Inclination: 74.0 °
Period: 114.8 minutes
Semi major axis: 7825 km
RCS: 0.7072 m2 (medium)
Launch date: May 28, 1975
Source: Commonwealth of Independent States (former USSR) (CIS)
Launch site: PLESETSK MISSILE AND SPACE COMPLEX (PKMTR)
aabbcc
Your satellite tracking list
Your tracking list is empty




NASA's NSSDC Master Catalog

Two Line Element Set (TLE):
1  7828U 75045H   18320.45519456 -.00000026 +00000-0 -58856-4 0  9995
2  7828 074.0182 223.6998 0031558 205.8638 277.5034 12.54160450990310
Source of the keplerian elements: AFSPC